Tracking 21470 objects as of 23-Sep-2020
HD Live streaming from Space Station
objects crossing your sky now

IRIDIUM 33 DEB

Track IRIDIUM 33 DEB now!
10-day predictions


NORAD ID: 35739
Int'l Code: 1997-051RS
Perigee: 641.6 km
Apogee: 716.9 km
Inclination: 86.4 °
Period: 98.2 minutes
Semi major axis: 7050 km
RCS: 0.0119 m2 (small)
Launch date: September 14, 1997
Source: United States (US)
Launch site: TYURATAM MISSILE AND SPACE COMPLEX (TTMTR)

Note: This is SATELLITE DEBRIS
aabbcc
Your satellite tracking list
Your tracking list is empty




NASA's NSSDC Master Catalog

Two Line Element Set (TLE):
1 35739U 97051RS  20266.36765749 +.00003393 +00000-0 +59497-3 0  9997
2 35739 086.3925 137.8809 0053375 187.6650 172.3755 14.66547607600185
Source of the keplerian elements: AFSPC